Regional Weather Roundup
Issued by NWS

Home | Current Version | Previous Version | Text Only | Print | Product List | Glossary On
Versions: 1 2 3 4 5 6 7 8 9 10 11 12 13 14 15 16 17 18 19 20 21 22 23 24 25 26 27 28 29 30 31 32 33 34 35 36 37 38 39 40 41 42 43 44 45 46 47 48 49 50
000
ASUS46 KLOX 020413
RWRCA

SOUTHERN CALIFORNIA WEATHER ROUNDUP
NATIONAL WEATHER SERVICE OXNARD CALIFORNIA
900 PM PDT SUN MAY 01 2016

NOTE: "FAIR" INDICATES FEW OR NO CLOUDS BELOW 12,000 FEET WITH NO
SIGNIFICANT WEATHER AND/OR OBSTRUCTIONS TO VISIBILITY.

  -  STATIONS PRECEEDED BY AN ASTERISK (*) ARE NOT NWS OR FAA
     STATIONS AND ARE NOT SUBJECT TO NWS AND FAA QUALITY CONTROL.

CAZ041-042-087-020500-
LA AND ORANGE COUNTY COASTAL AREAS


CITY           SKY/WX    TMP DP  RH WIND       PRES   REMARKS
L.A. DOWNTOWN  CLEAR     59  53  80 W5        29.97R
L.A. AIRPORT   PTCLDY    58  52  80 W9        29.99R
LONG BEACH     CLEAR     61  53  75 NW8       29.98R

CITY           SKY/WX    TMP DP  RH WIND       PRES   REMARKS
AVALON           N/A     59 N/A N/A MISG        N/A
FULLERTON      CLEAR     62  52  69 SW5       29.97R
HAWTHORNE      PTCLDY    60  52  74 W8        29.99R
*LEO CARRILLO    N/A     57  53  86 CALM        N/A
*LOS ALAMITOS  FAIR      59  53  80 S5        29.98R
*REDONDO BEACH   N/A     58  52  80 CALM      29.98R
SANTA ANA      PTCLDY    59  52  77 S7        29.98R
STA MONICA APT MOCLDY    59  52  77 W5        29.99R
*STA MON PIER    N/A     58  55  88 NW6       29.93R

$$

CAZ547-548-048-020500-
LA COUNTY VALLEYS AND INLAND EMPIRE


CITY           SKY/WX    TMP DP  RH WIND       PRES   REMARKS
BURBANK        CLEAR     59  51  75 S7        29.97R
VAN NUYS       CLEAR     60  51  72 E5        29.97R

CITY           SKY/WX    TMP DP  RH WIND       PRES   REMARKS
CORONA AIRPORT CLEAR     60  52  74 W10G16    29.96R
*CHATSWORTH      N/A     63  51  65 E3        29.97R
CHINO          PTCLDY    61  52  72 W9        29.97R
*CLAREMONT       N/A     59  51  75 S7          N/A
MARCH AFB      CLEAR     61  51  70 NW3       29.97R
*NORTHRIDGE      N/A     61  48  63 E3          N/A
ONTARIO        PTCLDY    61  50  67 W8        29.96R
*PASADENA        N/A     59  54  82 E5          N/A
POMONA         MOCLDY    59  50  72 W12G18    29.99R
RIVERSIDE      CLEAR     62  51  67 W3        29.96R
SAN BERNARDINO PTCLDY    64  50  59 SW7       29.96R
*SAN GABRIEL     N/A     62  54  76 S3        30.04R
*SAN RAFAEL HI   N/A     54  51  88 SE2         N/A
*SAUGUS          N/A     67  49  51 SW9         N/A
*WHITEMAN AP   NOT AVBL
*WHITTIER HILL   N/A     56  52  85 S7          N/A
*WOODLAND HILL   N/A     61  50  67 S3          N/A

$$

CAZ054-055-020500-
LA AND SAN BERNARDINO COUNTY MOUNTAINS


CITY           SKY/WX    TMP DP  RH WIND       PRES   REMARKS
*ACTON           N/A     61  47  59 CALM        N/A
*BIG BEAR AIRP CLEAR     37  32  81 CALM      30.11R
*BIG PINES       N/A     45  32  61 CALM        N/A
SANDBERG       MOCLDY    55  46  71 SW6       30.04R

$$

CAZ028-029-059-060-099-020500-
ANTELOPE VALLEY AND SURROUNDING AREAS


CITY           SKY/WX    TMP DP  RH WIND       PRES   REMARKS
LANCASTER      MOCLDY    64  45  49 S7        29.97R
PALMDALE       CLOUDY    65  40  39 S17       29.97R
*POPPY PARK      N/A     61  47  59 SW14        N/A

CITY           SKY/WX    TMP DP  RH WIND       PRES   REMARKS
29 PALMS       PTCLDY    70  34  26 S6        30.00R
BARSTOW/DAGGET CLEAR     70  39  32 NE10      29.92R
BISHOP         PTCLDY    55  34  45 CALM      30.04R
CHINA LAKE     PTCLDY    65  31  28 CALM      29.93R
EDWARDS AFB    MOCLDY    66  47  49 SW10      29.93R
MOJAVE         PTCLDY    68  34  28 VRB3      29.96R
NEEDLES        CLEAR     76  43  30 SE12      29.90R
VICTORVILLE    PTCLDY    64  39  39 SW5       29.97R

$$

CAZ039-040-020500-
VENTURA AND SANTA BARBARA COUNTY COAST


CITY           SKY/WX    TMP DP  RH WIND       PRES   REMARKS
CAMARILLO      CLEAR     58  52  80 SW3       29.98R
NWS OXNARD       N/A     57  51  80 SW3       29.96R
OXNARD AIRPORT CLEAR     59  53  80 S3        29.97R
*POINT MUGU    PTCLDY    57  52  83 S6        29.99R
SBA APT/GOLETA CLEAR     55  52  89 W5        29.96R
*SANTA BARBARA   N/A     61  52  71 CALM      30.04R
*VENTURA         N/A     57  53  84 SW1       29.97R

$$

CAZ044-045-020500-
VENTURA COUNTY VALLEYS


CITY           SKY/WX    TMP DP  RH WIND       PRES   REMARKS
*SIMI VALLEY     N/A     57  52  83 CALM      29.94R
*WESTLAKE VILL   N/A     55  50  81 CALM      29.96R
*OJAI            N/A     56  49  78 CALM      29.92R
*FILLMORE        N/A     59  51  73 CALM      29.88R

$$

CAZ053-020500-
VENTURA COUNTY MOUNTAINS


CITY           SKY/WX    TMP DP  RH WIND       PRES   REMARKS
*LOCKWOOD VLY    N/A     46  39  76 CALM        N/A
*ROSE VALLEY     N/A     55  48  76 MISG        N/A

$$

CAZ034-035-036-020500-
CENTRAL COAST AND SANTA YNEZ VALLEY


CITY           SKY/WX    TMP DP  RH WIND       PRES   REMARKS
SAN LUIS OBISP CLEAR     58  52  80 N3        29.96R
SANTA MARIA    CLOUDY    55  52  89 NW5       29.96R

CITY           SKY/WX    TMP DP  RH WIND       PRES   REMARKS
*CAL POLY SLO    N/A     57  54  88 CALM        N/A
*LOMPOC        CLEAR     55  52  89 W5        29.96R
*PISMO BEACH     N/A     57  53  88 CALM      29.97R
*SANTA YNEZ    FAIR      55  48  76 CALM      29.96R

$$

CAZ037-038-051-020500-
SAN LUIS OBISPO COUNTY INTERIOR AND CUYAMA VALLEY


CITY           SKY/WX    TMP DP  RH WIND       PRES   REMARKS
*CUYAMA          N/A     60  50  69 S5        29.89R
PASO ROBLES    CLEAR     60  48  64 S10       29.94R

$$

CAZ032-033-061-020500-
SOUTHERN DESERTS


CITY           SKY/WX    TMP DP  RH WIND       PRES   REMARKS
BLYTHE         CLEAR     77  40  26 CALM      29.87R
IMPERIAL       CLEAR     73  45  36 CALM      29.85R
PALM SPRINGS   CLEAR     76  43  30 N3        29.90R
THERMAL        CLEAR     70  46  42 N5        29.84R

$$

ELSEWHERE ACROSS THE WESTERN UNITED STATES AND MEXICO


CITY           SKY/WX    TMP DP  RH WIND       PRES   REMARKS
DEATH VALLEY,    N/A     82  34  17 CALM        N/A
DENVER, CO     CLOUDY    35  28  75 SW6       30.29R WCI  30
GRAND CANYON,  PTCLDY    41  33  73 E5        30.14R
HONOLULU, HI   MOSUNNY   81  66  61 NE13      30.04R
KAHULUI, MAUI  MOSUNNY   79  66  65 NE16G26   30.03R
LAKE TAHOE, CA LGT RAIN  43  36  76 CALM      30.10R
LAS VEGAS, NV  PTCLDY    70  41  34 SW5       29.91R
MAMMOTH LAKES, MOCLDY    36  36  98 CALM      30.15R
MEXICO CITY, M PTCLDY    73  34  23 S5        30.26R
PHOENIX, AZ    CLEAR     76  38  25 N5        29.91R
PORTLAND, OR   CLEAR     71  40  32 E10       29.88R
RENO, NV       MOCLDY    59  33  37 E5        30.03R
SALT LAKE CITY MOCLDY    55  28  35 SW5       30.08R
SAN DIEGO, CA  MOCLDY    62  51  67 W5        30.00R
SAN FRANCISCO, PTCLDY    66  44  45 W6        29.90R
SAN JOSE, CA   PTCLDY    67  42  40 S10       29.90R
SEATTLE, WA    CLEAR     72  42  34 N14       29.95R
TIJUANA, MEX   PTCLDY    57  48  72 NW8       30.01R

$$

STATION/POSITION TIME  TEMP    WIND        PRES    VSBY  WAVE
                       AIR SEA DIR/SP/G                  HT/PER
                 (UTC) (F)     (DEG/KT/KT) (MB)    (MI)  (FT/S)
POINT ARGUELLO B NOT AVBL
WEST SANTA BARBA 0350   54 55  190/  6/  8 1014.0R         7/10
POINT CONCEPTION NOT AVBL
EAST SANTA BARBA 0300   56 58  280/  6/  8 1014.5R
SANTA MONICA BAY 0350   57 60  240/  4/  8 1015.3R         4/16


USA.gov is the U.S. government's official web portal to all federal, state and local government web resources and services.